Aurora 2 Rocket - Orbit

View from above orbital plane
View from above orbital plane
View from above satellite
View from above satellite

Ground track
Ground track

The orbit data is extracted from the following two-line orbital elements,

1 21393U 91037B   13168.38432454  .00003063  00000-0  24571-3 0  5338
2 21393 024.9906 143.8422 0977208 246.0913 103.4254 13.35675235 54459
Epoch (UTC): 17 June 2013 09:13:25
Eccentricity: 0.0977208
inclination: 24.9906°
perigee height: 392 km
apogee height: 1858 km
right ascension of ascending node: 143.8422°
argument of perigee: 246.0913°
revolutions per day: 13.35675235
mean anomaly at epoch: 103.4254°
orbit number at epoch: 5445

The dashed part of the orbit path shows where the satellite is in the earth's shadow,  

Developed and maintained by Chris Peat, Heavens-Above GmbH. Please read the updated FAQ before sending e-mail. Imprint. DLR